Location: Carabito
(9.8355°N, 67.9249°W)
Time: 22:18:03
(UTC+00:00)

Palapa 6 Rocket - Pass Details

Date: 23 May 2024
Orbit: 482 x 1186 km, 22.7° (Epoch: 25 June)

Event Time Altitude Azimuth Distance (km) Brightness Sun altitude
Exits shadow 08:18:18 45° 56° (ENE) 679 3.6 -25.8°
Drops below altitude 10° 08:21:30 10° 97° (E) 1,743 6.1 -25.1°
Sets 08:23:55 0° 103° (ESE) 2,707 7.1 -24.6°
